Tracking 19181 objects as of 17-Jun-2018
HD Live streaming from Space Station
objects crossing your sky now

FENGYUN 1C DEB

Track FENGYUN 1C DEB now!
10-day predictions


NORAD ID: 30936
Int'l Code: 1999-025BAA
Perigee: 802.9 km
Apogee: 872.9 km
Inclination: 98.9 °
Period: 101.5 minutes
Semi major axis: 7208 km
RCS: 0.0141 m2 (small)
Launch date: May 10, 1999
Source: People's Republic of China (PRC)
Launch site: Taiyaun Space Center, China (TSC)

Note: This is SATELLITE DEBRIS
aabbcc
Your satellite tracking list
Your tracking list is empty




NASA's NSSDC Master Catalog

Two Line Element Set (TLE):
1 30936U 99025BAA 18168.01714083  .00000173  00000-0  10449-3 0  9996
2 30936  98.8819 198.1898 0048601 243.5444 180.7854 14.18398454583405
Source of the keplerian elements: AFSPC